TimeCST,TemperatureF,Dew PointF,Humidity,Sea Level PressureIn,VisibilityMPH,Wind Direction,Wind SpeedMPH,Gust SpeedMPH,PrecipitationIn,Events,Conditions,WindDirDegrees,DateUTC
12:15 AM,25.2,23.7,94,29.95,0.8,East,13.8,-,N/A,Snow,Snow,90,2013-02-22 06:15:00
12:35 AM,24.8,23.5,95,29.94,0.8,East,15.0,-,N/A,Snow,Snow,90,2013-02-22 06:35:00
12:55 AM,24.6,23.0,94,29.94,1.2,East,11.5,-,N/A,Snow,Light Snow,90,2013-02-22 06:55:00
1:15 AM,24.4,23.0,94,29.92,1.0,East,16.1,20.7,N/A,Snow,Light Snow,100,2013-02-22 07:15:00
1:35 AM,24.3,22.6,94,29.91,1.0,East,17.3,-,N/A,Snow,Light Snow,100,2013-02-22 07:35:00
1:55 AM,23.9,22.1,93,29.90,1.8,East,16.1,21.9,N/A,Snow,Light Snow,100,2013-02-22 07:55:00
2:15 AM,23.7,22.1,94,29.89,1.5,East,15.0,-,N/A,Snow-Thunderstorm,Light Thunderstorms and Snow,100,2013-02-22 08:15:00
2:35 AM,23.4,22.1,95,29.89,1.0,East,12.7,-,N/A,Snow-Thunderstorm,Light Thunderstorms and Snow,100,2013-02-22 08:35:00
2:55 AM,23.4,22.1,95,29.88,1.2,East,11.5,-,N/A,Snow-Thunderstorm,Light Thunderstorms and Snow,100,2013-02-22 08:55:00
3:15 AM,23.2,21.9,95,29.88,1.8,East,10.4,-,N/A,Snow,Light Snow,90,2013-02-22 09:15:00
3:35 AM,23.0,21.7,95,29.87,1.8,East,11.5,-,N/A,Snow-Thunderstorm,Light Thunderstorms and Snow,90,2013-02-22 09:35:00
3:55 AM,23.0,21.7,95,29.86,2.5,East,10.4,-,N/A,Snow,Light Snow,80,2013-02-22 09:55:00
4:15 AM,23.0,21.9,96,29.86,1.8,East,9.2,-,N/A,Snow-Thunderstorm,Light Thunderstorms and Snow,80,2013-02-22 10:15:00
4:35 AM,23.2,21.9,95,29.85,1.8,East,9.2,-,N/A,Snow,Light Snow,90,2013-02-22 10:35:00
4:55 AM,23.4,22.1,95,29.85,2.5,East,9.2,-,N/A,Snow,Light Snow,90,2013-02-22 10:55:00
5:15 AM,23.5,22.1,94,29.84,2.5,East,9.2,-,N/A,,Overcast,90,2013-02-22 11:15:00
5:35 AM,23.5,22.1,94,29.84,3.0,East,9.2,-,N/A,,Overcast,100,2013-02-22 11:35:00
5:55 AM,23.7,22.5,95,29.83,3.0,East,9.2,-,N/A,,Overcast,90,2013-02-22 11:55:00
6:15 AM,23.9,22.5,94,29.83,5.0,East,8.1,-,N/A,Snow,Light Snow,100,2013-02-22 12:15:00
6:35 AM,24.8,23.0,93,29.82,7.0,East,6.9,-,N/A,,Overcast,100,2013-02-22 12:35:00
6:55 AM,24.6,23.0,94,29.82,7.0,ESE,6.9,-,N/A,,Overcast,110,2013-02-22 12:55:00
7:15 AM,25.2,23.5,94,29.82,7.0,ESE,6.9,-,N/A,,Overcast,110,2013-02-22 13:15:00
7:35 AM,25.7,23.9,93,29.81,7.0,ESE,8.1,-,N/A,,Overcast,120,2013-02-22 13:35:00
7:55 AM,26.4,24.8,94,29.82,7.0,SE,8.1,-,N/A,,Overcast,130,2013-02-22 13:55:00
8:15 AM,27.0,25.3,94,29.82,7.0,SE,10.4,-,N/A,,Overcast,130,2013-02-22 14:15:00
8:35 AM,27.5,25.7,93,29.81,5.0,SE,10.4,-,N/A,,Overcast,130,2013-02-22 14:35:00
8:55 AM,27.5,26.4,96,29.81,3.0,SE,9.2,-,N/A,,Overcast,140,2013-02-22 14:55:00
9:15 AM,28.0,27.0,96,29.81,4.0,SSE,9.2,-,N/A,,Overcast,150,2013-02-22 15:15:00
9:35 AM,28.0,27.3,97,29.82,1.8,SSE,10.4,-,N/A,,Overcast,160,2013-02-22 15:35:00
9:55 AM,28.4,27.9,98,29.82,1.2,SSE,9.2,-,N/A,,Overcast,160,2013-02-22 15:55:00
10:15 AM,28.9,28.8,99,29.81,0.8,SSE,8.1,-,N/A,,Overcast,160,2013-02-22 16:15:00
10:35 AM,29.5,29.3,99,29.82,0.5,SSE,6.9,-,N/A,,Freezing Rain,160,2013-02-22 16:35:00
10:55 AM,30.2,30.2,100,29.83,0.5,South,6.9,-,N/A,,Freezing Rain,180,2013-02-22 16:55:00
11:15 AM,30.9,30.9,100,29.83,0.5,South,6.9,-,N/A,,Freezing Rain,190,2013-02-22 17:15:00
11:35 AM,31.8,31.8,100,29.83,0.5,SSW,8.1,-,N/A,,Freezing Rain,200,2013-02-22 17:35:00
11:55 AM,32.0,32.0,100,29.82,1.5,SSW,8.1,-,N/A,Rain,Rain,210,2013-02-22 17:55:00
12:15 PM,32.5,32.5,100,29.81,2.5,SW,9.2,-,N/A,Rain,Rain,220,2013-02-22 18:15:00
12:35 PM,33.1,32.4,97,29.81,2.5,SW,10.4,16.1,N/A,Snow,Light Snow,230,2013-02-22 18:35:00
12:55 PM,33.1,32.0,96,29.80,5.0,WSW,10.4,-,N/A,Rain,Rain,240,2013-02-22 18:55:00
1:15 PM,33.8,32.0,93,29.80,10.0,WSW,11.5,-,N/A,,Overcast,250,2013-02-22 19:15:00
1:35 PM,33.8,31.6,92,29.80,10.0,WSW,15.0,19.6,N/A,,Overcast,240,2013-02-22 19:35:00
1:55 PM,33.4,31.1,91,29.81,10.0,WSW,17.3,-,N/A,,Overcast,250,2013-02-22 19:55:00
2:15 PM,33.3,30.7,90,29.81,10.0,WSW,16.1,21.9,N/A,,Overcast,240,2013-02-22 20:15:00
2:35 PM,33.1,30.6,90,29.82,10.0,WSW,17.3,20.7,N/A,,Overcast,250,2013-02-22 20:35:00
2:55 PM,33.1,29.7,87,29.82,10.0,WSW,20.7,25.3,N/A,,Overcast,250,2013-02-22 20:55:00
3:15 PM,32.5,27.5,82,29.84,10.0,WSW,21.9,26.5,N/A,,Overcast,250,2013-02-22 21:15:00
3:35 PM,32.0,25.9,78,29.84,10.0,WSW,21.9,28.8,N/A,,Overcast,250,2013-02-22 21:35:00
3:55 PM,31.6,25.5,78,29.84,10.0,West,24.2,28.8,N/A,,Overcast,260,2013-02-22 21:55:00
4:15 PM,31.1,25.3,79,29.85,10.0,WSW,16.1,-,N/A,,Overcast,250,2013-02-22 22:15:00
4:35 PM,30.7,25.3,80,29.86,10.0,West,16.1,-,N/A,,Overcast,260,2013-02-22 22:35:00
4:55 PM,30.2,23.9,77,29.87,10.0,West,15.0,-,N/A,,Overcast,260,2013-02-22 22:55:00
5:15 PM,30.2,24.1,78,29.87,10.0,WSW,15.0,21.9,N/A,,Overcast,250,2013-02-22 23:15:00
5:35 PM,30.2,24.4,79,29.87,10.0,WSW,11.5,19.6,N/A,,Overcast,240,2013-02-22 23:35:00
5:55 PM,30.0,24.6,80,29.88,10.0,WSW,16.1,-,N/A,,Overcast,240,2013-02-22 23:55:00
6:15 PM,29.8,24.8,81,29.89,10.0,SW,15.0,19.6,N/A,,Overcast,230,2013-02-23 00:15:00
6:35 PM,29.7,24.6,81,29.89,10.0,WSW,18.4,24.2,N/A,,Overcast,250,2013-02-23 00:35:00
6:55 PM,29.5,24.6,82,29.89,10.0,WSW,16.1,20.7,N/A,,Overcast,240,2013-02-23 00:55:00
7:15 PM,29.3,24.6,83,29.90,10.0,WSW,15.0,-,N/A,,Overcast,240,2013-02-23 01:15:00
7:35 PM,29.1,24.4,83,29.90,10.0,WSW,15.0,20.7,N/A,,Overcast,240,2013-02-23 01:35:00
7:55 PM,28.9,24.4,83,29.91,10.0,WSW,15.0,-,N/A,Snow,Light Snow,240,2013-02-23 01:55:00
8:15 PM,28.8,24.6,84,29.91,7.0,WSW,15.0,-,N/A,Snow,Light Snow,250,2013-02-23 02:15:00
8:35 PM,28.4,24.8,86,29.91,7.0,WSW,11.5,-,N/A,Snow,Light Snow,240,2013-02-23 02:35:00
8:55 PM,28.4,24.6,86,29.91,7.0,WSW,13.8,20.7,N/A,Snow,Light Snow,240,2013-02-23 02:55:00
9:15 PM,28.4,24.4,85,29.91,10.0,WSW,13.8,-,N/A,Snow,Light Snow,240,2013-02-23 03:15:00
9:35 PM,28.0,24.3,86,29.92,7.0,WSW,13.8,18.4,N/A,Snow,Light Snow,240,2013-02-23 03:35:00
9:55 PM,27.7,24.3,87,29.91,7.0,WSW,13.8,18.4,N/A,Snow,Light Snow,240,2013-02-23 03:55:00
10:15 PM,27.5,23.9,86,29.91,10.0,WSW,15.0,19.6,N/A,Snow,Light Snow,240,2013-02-23 04:15:00
10:35 PM,28.4,24.8,86,29.91,10.0,WSW,16.1,-,N/A,Snow,Light Snow,250,2013-02-23 04:35:00
10:55 PM,27.5,23.7,86,29.92,10.0,WSW,13.8,19.6,N/A,Snow,Light Snow,250,2013-02-23 04:55:00
11:15 PM,27.5,23.7,86,29.92,10.0,WSW,13.8,18.4,N/A,,Overcast,250,2013-02-23 05:15:00
11:35 PM,27.5,23.7,86,29.91,10.0,West,13.8,-,N/A,,Overcast,260,2013-02-23 05:35:00
11:55 PM,27.5,23.5,85,29.92,10.0,West,12.7,-,N/A,,Overcast,260,2013-02-23 05:55:00